Погода в Лишуе

Китай     28°27′23″N   119°54′54″E
темп.,
°C
ветер,
м/с
пор.,
м/с
влажн.,
%
обл.,
%
осадки,
мм/ч
давл.,
гПа
погр.,
м
14 июня, пн
пн1423:00+23ююв119494 0.0 100713
02:00+22ююв119789 0.0 100613
05:00+22ю1198100 0.0 100522
08:00+25юз1287100 0.0 1006301
11:00+31зюз246466 0.0 10041070
14:00+32юз2358100 0.1 10021339
17:00+30с1175100 1.2 100020
20:00+25в2290100 2.7 100218
15 июня, вт
вт1523:00+24ююв119368 1.8 100213
02:00+23ю11979 1.8 100018
05:00+23ююз1197100 0.0 100020
08:00+25юз128995 0.0 1001166
11:00+31зюз2461100 0.0 1001932
14:00+32зюз2457100 0.2 9991559
17:00+32сз1266100 0.3 999522
20:00+26всв0085100 0.6 100011
16 июня, ср
ср1623:00+25ююз1189100 0.0 100113
02:00+24зюз019192 0.0 100011
05:00+23юз119489 0.0 100116
08:00+28юз127664 0.0 1002289
11:00+32зюз2460100 0.1 10021288
14:00+31зсз2370100 0.6 1001551
17:00+29ссв2382100 1.7 100181
20:00+25св1191100 2.4 100314
17 июня, чт
чт1723:00+25ююз1193100 0.3 100311
02:00+24юз1196100 0.3 100216
05:00+24юз119790 0.0 100327
08:00+27юз1288100 0.3 1003220
11:00+30зюз1370100 1.9 1002844
14:00+32сз2468100 3.2 10011228
17:00+28ссв1187100 3.5 100122
20:00+25св1191100 4.4 100317
18 июня, пт
пт1823:00+24в0092100 0.7 100311
02:00+23сз1197100 4.2 100212
05:00+23зсз1199100 2.9 100217
08:00+24ююз11100100 9.0 100388
11:00+24зюз2398100 0.9 1003253
14:00+25юз119696 2.5 1002139
17:00+27зюз1189100 0.3 1001126
20:00+24зюз1195100 4.0 100211